Wetterdaten: Woche 01.02.16 - 07.02.16 (KW5)
Datum Zeit Temp. Aussen Temp. o. S. +5cm Feuchte Auss BlattFeu 1 Luftdruck Regen Sonnenschein Regendauer Solar Windben Empfang
01.02.2016 00:00 11,3 C 11,1 C 9,5 C 98 % 15 lf 1009,3 hPa 0,4 l/m 0,00 h 0,77 h 0 W/m 24,8 km/h (4 Bft) 96,68 %
01.02.2016 01:00 11,5 C 11,2 C 10,0 C 98 % 15 lf 1010,0 hPa 0,4 l/m 0,00 h 0,93 h 0 W/m 28,9 km/h (5 Bft) 93,52 %
01.02.2016 02:00 11,5 C 11,5 C 10,0 C 98 % 15 lf 1010,9 hPa 0,6 l/m 0,00 h 1,00 h 0 W/m 29,4 km/h (5 Bft) 97,29 %
01.02.2016 03:00 11,4 C 11,1 C 10,0 C 99 % 15 lf 1012,0 hPa 0,4 l/m 0,00 h 0,93 h 0 W/m 30,4 km/h (5 Bft) 97,65 %
01.02.2016 04:00 11,3 C 11,1 C 9,8 C 99 % 15 lf 1012,6 hPa 0,2 l/m 0,00 h 0,27 h 0 W/m 30,6 km/h (5 Bft) 93,78 %
01.02.2016 05:00 11,2 C 11,1 C 9,4 C 99 % 15 lf 1013,6 hPa 0,2 l/m 0,00 h 0,27 h 0 W/m 30,2 km/h (5 Bft) 96,44 %
01.02.2016 06:00 11,1 C 11,1 C 9,4 C 99 % 15 lf 1013,9 hPa 0,0 l/m 0,00 h 0,00 h 0 W/m 29,1 km/h (5 Bft) 96,08 %
01.02.2016 07:00 11,0 C 11,0 C 9,4 C 99 % 15 lf 1014,6 hPa 0,0 l/m 0,00 h 0,00 h 0 W/m 33,9 km/h (5 Bft) 95,73 %
01.02.2016 08:00 10,9 C 10,6 C 9,4 C 99 % 15 lf 1015,5 hPa 0,0 l/m 0,00 h 0,00 h 11 W/m 34,7 km/h (5 Bft) 96,20 %
01.02.2016 09:00 10,8 C 10,6 C 9,3 C 98 % 14 lf 1016,1 hPa 0,2 l/m 0,00 h 0,03 h 26 W/m 35,9 km/h (5 Bft) 95,75 %
01.02.2016 10:00 10,6 C 10,5 C 8,9 C 97 % 15 lf 1016,6 hPa 0,0 l/m 0,00 h 0,47 h 30 W/m 34,9 km/h (5 Bft) 95,58 %
01.02.2016 11:00 10,7 C 11,2 C 8,9 C 94 % 5 lf 1016,7 hPa 0,0 l/m 0,00 h 0,20 h 43 W/m 42,6 km/h (6 Bft) 98,01 %
01.02.2016 12:00 11,2 C 11,8 C 9,3 C 88 % 0 lf 1016,4 hPa 0,0 l/m 0,00 h 0,00 h 69 W/m 40,7 km/h (6 Bft) 95,45 %
01.02.2016 13:00 11,6 C 12,2 C 10,1 C 84 % 0 lf 1016,5 hPa 0,0 l/m 0,00 h 0,00 h 79 W/m 45,9 km/h (6 Bft) 94,88 %
01.02.2016 14:00 11,7 C 12,2 C 10,3 C 83 % 0 lf 1016,3 hPa 0,0 l/m 0,00 h 0,00 h 60 W/m 44,6 km/h (6 Bft) 98,35 %
01.02.2016 15:00 11,8 C 12,2 C 10,2 C 83 % 0 lf 1016,4 hPa 0,0 l/m 0,00 h 0,00 h 37 W/m 44,2 km/h (6 Bft) 95,94 %
01.02.2016 16:00 11,7 C 12,1 C 10,0 C 82 % 0 lf 1017,0 hPa 0,0 l/m 0,00 h 0,00 h 15 W/m 42,3 km/h (6 Bft) 95,09 %
01.02.2016 17:00 11,7 C 11,8 C 10,0 C 84 % 0 lf 1017,0 hPa 0,0 l/m 0,00 h 0,00 h 5 W/m 40,4 km/h (6 Bft) 96,01 %
01.02.2016 18:00 11,7 C 11,8 C 10,0 C 85 % 0 lf 1017,0 hPa 0,0 l/m 0,00 h 0,00 h 0 W/m 46,6 km/h (6 Bft) 96,58 %
01.02.2016 19:00 11,7 C 11,8 C 10,0 C 85 % 0 lf 1016,8 hPa 0,0 l/m 0,00 h 0,03 h 0 W/m 44,4 km/h (6 Bft) 96,04 %
01.02.2016 20:00 11,3 C 11,7 C 10,0 C 87 % 0 lf 1016,7 hPa 0,0 l/m 0,00 h 0,00 h 0 W/m 40,9 km/h (6 Bft) 96,43 %
01.02.2016 21:00 11,3 C 11,6 C 9,9 C 86 % 0 lf 1016,6 hPa 0,0 l/m 0,00 h 0,00 h 0 W/m 42,1 km/h (6 Bft) 95,12 %
01.02.2016 22:00 11,2 C 11,3 C 9,7 C 88 % 1 lf 1016,5 hPa 0,0 l/m 0,00 h 0,23 h 0 W/m 40,9 km/h (6 Bft) 97,29 %
01.02.2016 23:00 10,7 C 10,6 C 8,9 C 92 % 5 lf 1016,4 hPa 0,0 l/m 0,00 h 0,73 h 0 W/m 37,5 km/h (5 Bft) 96,73 %
02.02.2016 00:00 10,6 C 10,5 C 9,1 C 94 % 15 lf 1016,1 hPa 0,0 l/m 0,00 h 0,83 h 0 W/m 37,3 km/h (5 Bft) 94,37 %
02.02.2016 01:00 10,7 C 10,5 C 9,0 C 93 % 15 lf 1015,7 hPa 0,0 l/m 0,00 h 0,80 h 0 W/m 43,6 km/h (6 Bft) 95,67 %
02.02.2016 02:00 10,7 C 10,7 C 9,0 C 93 % 14 lf 1015,5 hPa 0,2 l/m 0,00 h 0,70 h 0 W/m 44,5 km/h (6 Bft) 97,51 %
02.02.2016 03:00 10,7 C 10,5 C 8,9 C 93 % 15 lf 1015,3 hPa 0,0 l/m 0,00 h 0,77 h 0 W/m 42,7 km/h (6 Bft) 95,80 %
02.02.2016 04:00 10,7 C 10,7 C 9,0 C 92 % 11 lf 1015,0 hPa 0,0 l/m 0,00 h 0,83 h 0 W/m 43,4 km/h (6 Bft) 95,15 %
02.02.2016 05:00 10,6 C 10,7 C 9,0 C 89 % 0 lf 1014,8 hPa 0,0 l/m 0,00 h 0,10 h 0 W/m 43,7 km/h (6 Bft) 95,66 %
02.02.2016 06:00 10,3 C 10,4 C 8,8 C 85 % 0 lf 1014,6 hPa 0,0 l/m 0,00 h 0,23 h 0 W/m 41,8 km/h (6 Bft) 96,37 %
02.02.2016 07:00 9,7 C 9,7 C 8,1 C 86 % 0 lf 1014,5 hPa 0,0 l/m 0,00 h 0,00 h 0 W/m 33,6 km/h (5 Bft) 96,15 %
02.02.2016 08:00 9,1 C 8,6 C 7,3 C 91 % 13 lf 1014,4 hPa 0,2 l/m 0,00 h 0,83 h 11 W/m 36,4 km/h (5 Bft) 93,95 %
02.02.2016 09:00 8,8 C 8,4 C 7,2 C 95 % 15 lf 1014,3 hPa 1,0 l/m 0,00 h 0,83 h 39 W/m 32,8 km/h (5 Bft) 96,87 %
02.02.2016 10:00 8,7 C 8,4 C 7,3 C 96 % 15 lf 1014,0 hPa 1,2 l/m 0,00 h 0,97 h 52 W/m 27,6 km/h (4 Bft) 95,30 %
02.02.2016 11:00 8,8 C 8,6 C 7,5 C 96 % 15 lf 1013,6 hPa 0,6 l/m 0,00 h 0,97 h 93 W/m 30,3 km/h (5 Bft) 97,44 %
02.02.2016 12:00 8,6 C 8,3 C 7,0 C 95 % 15 lf 1012,9 hPa 0,2 l/m 0,00 h 0,93 h 82 W/m 27,2 km/h (4 Bft) 93,80 %
02.02.2016 13:00 8,5 C 8,2 C 6,8 C 94 % 15 lf 1012,1 hPa 0,6 l/m 0,00 h 0,93 h 63 W/m 27,5 km/h (4 Bft) 95,80 %
02.02.2016 14:00 8,1 C 7,4 C 6,5 C 95 % 15 lf 1011,6 hPa 2,4 l/m 0,00 h 1,00 h 34 W/m 26,6 km/h (4 Bft) 97,43 %
02.02.2016 15:00 7,7 C 7,2 C 6,1 C 96 % 15 lf 1011,5 hPa 3,8 l/m 0,00 h 1,00 h 16 W/m 26,2 km/h (4 Bft) 96,51 %
02.02.2016 16:00 7,4 C 7,1 C 6,1 C 96 % 15 lf 1011,6 hPa 0,8 l/m 0,00 h 0,53 h 13 W/m 26,4 km/h (4 Bft) 93,37 %
02.02.2016 17:00 7,4 C 7,1 C 5,8 C 96 % 12 lf 1011,9 hPa 0,0 l/m 0,00 h 0,00 h 9 W/m 31,5 km/h (5 Bft) 97,93 %
02.02.2016 18:00 7,0 C 6,7 C 5,1 C 95 % 5 lf 1012,7 hPa 0,0 l/m 0,00 h 0,00 h 0 W/m 31,4 km/h (5 Bft) 95,73 %
02.02.2016 19:00 6,7 C 6,7 C 5,0 C 93 % 3 lf 1013,2 hPa 0,0 l/m 0,00 h 0,00 h 0 W/m 29,9 km/h (5 Bft) 96,01 %
02.02.2016 20:00 6,7 C 6,3 C 4,6 C 93 % 10 lf 1013,7 hPa 2,2 l/m 0,00 h 0,70 h 0 W/m 29,4 km/h (5 Bft) 96,58 %
02.02.2016 21:00 5,5 C 5,1 C 3,3 C 93 % 15 lf 1014,2 hPa 1,4 l/m 0,00 h 0,13 h 0 W/m 30,6 km/h (5 Bft) 94,02 %
02.02.2016 22:00 5,8 C 5,6 C 3,9 C 94 % 15 lf 1014,6 hPa 0,4 l/m 0,00 h 0,07 h 0 W/m 32,4 km/h (5 Bft) 97,58 %
02.02.2016 23:00 5,8 C 5,5 C 3,5 C 92 % 12 lf 1014,8 hPa 0,2 l/m 0,00 h 0,57 h 0 W/m 33,5 km/h (5 Bft) 96,37 %
03.02.2016 00:00 5,5 C 5,3 C 3,4 C 89 % 1 lf 1015,1 hPa 0,0 l/m 0,00 h 0,00 h 0 W/m 27,5 km/h (4 Bft) 95,37 %
03.02.2016 01:00 5,0 C 5,0 C 3,2 C 88 % 0 lf 1015,0 hPa 0,0 l/m 0,00 h 0,00 h 0 W/m 25,3 km/h (4 Bft) 94,50 %
03.02.2016 02:00 4,9 C 4,9 C 3,3 C 88 % 0 lf 1015,2 hPa 0,0 l/m 0,00 h 0,00 h 0 W/m 28,3 km/h (4 Bft) 96,44 %
03.02.2016 03:00 4,7 C 4,4 C 3,3 C 89 % 0 lf 1015,0 hPa 0,0 l/m 0,00 h 0,00 h 0 W/m 25,0 km/h (4 Bft) 98,29 %
03.02.2016 04:00 4,5 C 4,3 C 3,0 C 91 % 0 lf 1014,5 hPa 0,0 l/m 0,00 h 0,00 h 0 W/m 22,4 km/h (4 Bft) 95,06 %
03.02.2016 05:00 4,2 C 4,1 C 2,9 C 90 % 0 lf 1014,4 hPa 0,0 l/m 0,00 h 0,00 h 0 W/m 21,2 km/h (4 Bft) 96,38 %
03.02.2016 06:00 4,3 C 4,4 C 3,0 C 90 % 0 lf 1014,3 hPa 0,0 l/m 0,00 h 0,00 h 0 W/m 22,1 km/h (4 Bft) 97,79 %
03.02.2016 07:00 4,2 C 4,3 C 2,9 C 90 % 0 lf 1014,5 hPa 0,0 l/m 0,00 h 0,03 h 0 W/m 19,0 km/h (3 Bft) 95,66 %
03.02.2016 08:00 4,1 C 3,9 C 2,6 C 91 % 15 lf 1014,8 hPa 0,0 l/m 0,00 h 0,70 h 10 W/m 22,2 km/h (4 Bft) 98,14 %
03.02.2016 09:00 3,8 C 4,2 C 2,3 C 92 % 15 lf 1015,2 hPa 0,2 l/m 0,17 h 0,10 h 72 W/m 18,3 km/h (3 Bft) 96,02 %
03.02.2016 10:00 4,4 C 9,4 C 3,2 C 92 % 4 lf 1015,9 hPa 0,0 l/m 0,97 h 0,03 h 231 W/m 21,3 km/h (4 Bft) 95,08 %
03.02.2016 11:00 5,8 C 12,6 C 4,7 C 87 % 0 lf 1016,5 hPa 0,0 l/m 1,00 h 0,00 h 319 W/m 23,6 km/h (4 Bft) 99,16 %
03.02.2016 12:00 6,8 C 10,8 C 5,9 C 78 % 0 lf 1016,7 hPa 0,0 l/m 0,57 h 0,00 h 269 W/m 25,0 km/h (4 Bft) 94,59 %
03.02.2016 13:00 6,8 C 12,0 C 5,5 C 73 % 0 lf 1016,7 hPa 0,0 l/m 0,70 h 0,00 h 272 W/m 25,5 km/h (4 Bft) 94,38 %
03.02.2016 14:00 5,8 C 5,3 C 3,5 C 77 % 10 lf 1017,3 hPa 0,4 l/m 0,10 h 0,57 h 57 W/m 30,4 km/h (5 Bft) 97,86 %
03.02.2016 15:00 3,4 C 4,4 C 2,2 C 91 % 15 lf 1017,9 hPa 0,0 l/m 0,47 h 0,00 h 126 W/m 21,7 km/h (4 Bft) 95,30 %
03.02.2016 16:00 4,3 C 4,5 C 2,8 C 90 % 9 lf 1018,4 hPa 0,0 l/m 0,10 h 0,00 h 46 W/m 21,0 km/h (4 Bft) 94,94 %
03.02.2016 17:00 4,0 C 4,0 C 2,3 C 89 % 0 lf 1019,2 hPa 0,0 l/m 0,03 h 0,00 h 11 W/m 23,0 km/h (4 Bft) 97,93 %
03.02.2016 18:00 3,6 C 3,7 C 2,2 C 91 % 0 lf 1020,4 hPa 0,0 l/m 0,00 h 0,00 h 0 W/m 20,0 km/h (4 Bft) 97,01 %
03.02.2016 19:00 3,7 C 3,9 C 2,5 C 92 % 0 lf 1021,1 hPa 0,0 l/m 0,00 h 0,00 h 0 W/m 20,3 km/h (4 Bft) 93,59 %
03.02.2016 20:00 3,8 C 4,0 C 2,6 C 93 % 1 lf 1021,9 hPa 0,0 l/m 0,00 h 0,07 h 0 W/m 21,5 km/h (4 Bft) 97,44 %
03.02.2016 21:00 3,9 C 4,1 C 2,8 C 92 % 0 lf 1022,9 hPa 0,0 l/m 0,00 h 0,00 h 0 W/m 21,3 km/h (4 Bft) 96,94 %
03.02.2016 22:00 3,9 C 3,9 C 2,7 C 92 % 0 lf 1023,3 hPa 0,0 l/m 0,00 h 0,03 h 0 W/m 18,5 km/h (3 Bft) 95,44 %
03.02.2016 23:00 3,8 C 3,9 C 2,4 C 92 % 2 lf 1023,7 hPa 0,0 l/m 0,00 h 0,13 h 0 W/m 17,6 km/h (3 Bft) 96,08 %
04.02.2016 00:00 3,8 C 3,8 C 2,6 C 93 % 0 lf 1024,0 hPa 0,0 l/m 0,00 h 0,00 h 0 W/m 18,4 km/h (3 Bft) 95,62 %
04.02.2016 01:00 3,6 C 3,4 C 2,2 C 93 % 0 lf 1023,9 hPa 0,0 l/m 0,00 h 0,00 h 0 W/m 16,5 km/h (3 Bft) 95,73 %
04.02.2016 02:00 3,5 C 3,8 C 2,4 C 93 % 2 lf 1024,4 hPa 0,0 l/m 0,00 h 0,13 h 0 W/m 17,1 km/h (3 Bft) 95,94 %
04.02.2016 03:00 3,5 C 3,5 C 2,1 C 93 % 9 lf 1024,4 hPa 0,0 l/m 0,00 h 0,00 h 0 W/m 17,9 km/h (3 Bft) 97,51 %
04.02.2016 04:00 3,0 C 2,8 C 1,7 C 94 % 1 lf 1024,1 hPa 0,0 l/m 0,00 h 0,07 h 0 W/m 18,5 km/h (3 Bft) 93,88 %
04.02.2016 05:00 2,8 C 2,8 C 1,7 C 94 % 0 lf 1023,5 hPa 0,0 l/m 0,00 h 0,00 h 0 W/m 17,7 km/h (3 Bft) 96,59 %
04.02.2016 06:00 2,9 C 3,1 C 1,8 C 93 % 0 lf 1023,1 hPa 0,0 l/m 0,00 h 0,00 h 0 W/m 20,3 km/h (4 Bft) 98,22 %
04.02.2016 07:00 3,3 C 3,6 C 2,2 C 93 % 0 lf 1022,7 hPa 0,0 l/m 0,00 h 0,00 h 0 W/m 22,5 km/h (4 Bft) 93,67 %
04.02.2016 08:00 3,6 C 3,9 C 2,8 C 92 % 0 lf 1022,4 hPa 0,0 l/m 0,00 h 0,00 h 12 W/m 19,7 km/h (3 Bft) 96,37 %
04.02.2016 09:00 4,0 C 4,1 C 2,6 C 91 % 9 lf 1021,4 hPa 0,2 l/m 0,00 h 0,73 h 19 W/m 25,4 km/h (4 Bft) 96,22 %
04.02.2016 10:00 4,0 C 3,6 C 2,5 C 93 % 15 lf 1021,0 hPa 0,8 l/m 0,00 h 1,00 h 35 W/m 24,1 km/h (4 Bft) 95,29 %
04.02.2016 11:00 3,7 C 3,3 C 2,2 C 94 % 15 lf 1019,9 hPa 1,4 l/m 0,00 h 1,00 h 44 W/m 21,1 km/h (4 Bft) 97,08 %
04.02.2016 12:00 3,6 C 3,5 C 2,5 C 95 % 15 lf 1018,3 hPa 0,6 l/m 0,00 h 1,00 h 41 W/m 19,3 km/h (3 Bft) 95,02 %
04.02.2016 13:00 4,4 C 4,7 C 3,4 C 96 % 15 lf 1017,1 hPa 0,0 l/m 0,00 h 0,43 h 52 W/m 26,6 km/h (4 Bft) 95,44 %
04.02.2016 14:00 5,6 C 5,9 C 4,7 C 97 % 15 lf 1016,9 hPa 0,2 l/m 0,00 h 0,27 h 57 W/m 22,2 km/h (4 Bft) 97,94 %
04.02.2016 15:00 6,3 C 6,7 C 5,2 C 98 % 15 lf 1017,4 hPa 0,0 l/m 0,03 h 0,00 h 50 W/m 18,8 km/h (3 Bft) 96,80 %
04.02.2016 16:00 6,8 C 6,8 C 5,3 C 98 % 15 lf 1018,2 hPa 0,0 l/m 0,00 h 0,20 h 34 W/m 22,9 km/h (4 Bft) 94,23 %
04.02.2016 17:00 6,7 C 6,4 C 5,0 C 97 % 15 lf 1019,6 hPa 0,2 l/m 0,00 h 0,73 h 4 W/m 21,3 km/h (4 Bft) 96,39 %
04.02.2016 18:00 6,2 C 5,8 C 4,3 C 96 % 15 lf 1020,9 hPa 0,0 l/m 0,00 h 0,33 h 0 W/m 16,1 km/h (3 Bft) 96,79 %
04.02.2016 19:00 5,0 C 3,8 C 2,5 C 95 % 15 lf 1022,2 hPa 0,0 l/m 0,00 h 0,00 h 0 W/m 6,4 km/h (2 Bft) 96,94 %
04.02.2016 20:00 3,8 C 3,0 C 1,7 C 93 % 15 lf 1023,2 hPa 0,0 l/m 0,00 h 0,00 h 0 W/m 6,4 km/h (2 Bft) 94,45 %
04.02.2016 21:00 3,9 C 3,9 C 2,3 C 95 % 15 lf 1024,1 hPa 0,0 l/m 0,00 h 0,00 h 0 W/m 3,0 km/h (1 Bft) 97,15 %
04.02.2016 22:00 3,8 C 3,7 C 2,5 C 95 % 15 lf 1024,7 hPa 0,0 l/m 0,00 h 0,00 h 0 W/m 2,9 km/h (1 Bft) 94,73 %
04.02.2016 23:00 3,7 C 3,9 C 2,7 C 95 % 15 lf 1025,1 hPa 0,0 l/m 0,00 h 0,00 h 0 W/m 1,9 km/h (1 Bft) 96,58 %
05.02.2016 00:00 3,8 C 3,9 C 2,8 C 95 % 15 lf 1025,5 hPa 0,0 l/m 0,00 h 0,00 h 0 W/m 3,4 km/h (1 Bft) 94,38 %
05.02.2016 01:00 3,9 C 4,1 C 2,8 C 96 % 15 lf 1025,5 hPa 0,0 l/m 0,00 h 0,00 h 0 W/m 5,7 km/h (1 Bft) 92,39 %
05.02.2016 02:00 4,2 C 4,6 C 3,2 C 96 % 15 lf 1025,5 hPa 0,0 l/m 0,00 h 0,00 h 0 W/m 8,4 km/h (2 Bft) 97,36 %
05.02.2016 03:00 4,6 C 5,0 C 3,3 C 96 % 12 lf 1025,2 hPa 0,0 l/m 0,00 h 0,00 h 0 W/m 8,8 km/h (2 Bft) 97,08 %
05.02.2016 04:00 4,7 C 5,0 C 3,3 C 97 % 9 lf 1024,9 hPa 0,0 l/m 0,00 h 0,00 h 0 W/m 8,0 km/h (2 Bft) 97,37 %
05.02.2016 05:00 4,8 C 5,0 C 3,9 C 97 % 3 lf 1024,5 hPa 0,0 l/m 0,00 h 0,00 h 0 W/m 9,2 km/h (2 Bft) 95,02 %
05.02.2016 06:00 4,9 C 5,0 C 3,9 C 97 % 2 lf 1023,9 hPa 0,0 l/m 0,00 h 0,13 h 0 W/m 9,0 km/h (2 Bft) 95,97 %
05.02.2016 07:00 5,1 C 5,4 C 4,0 C 97 % 0 lf 1023,8 hPa 0,0 l/m 0,00 h 0,00 h 0 W/m 13,3 km/h (3 Bft) 96,44 %
05.02.2016 08:00 5,5 C 5,9 C 4,4 C 97 % 0 lf 1023,7 hPa 0,0 l/m 0,00 h 0,40 h 9 W/m 12,0 km/h (2 Bft) 96,65 %
05.02.2016 09:00 6,4 C 6,7 C 5,4 C 98 % 7 lf 1023,2 hPa 0,8 l/m 0,00 h 0,77 h 20 W/m 12,3 km/h (3 Bft) 95,16 %
05.02.2016 10:00 8,0 C 8,2 C 6,8 C 98 % 14 lf 1023,1 hPa 0,2 l/m 0,00 h 0,03 h 27 W/m 20,4 km/h (4 Bft) 95,87 %
05.02.2016 11:00 8,6 C 9,0 C 7,5 C 99 % 15 lf 1023,1 hPa 0,0 l/m 0,00 h 0,00 h 65 W/m 20,7 km/h (4 Bft) 96,95 %
05.02.2016 12:00 9,2 C 9,6 C 8,1 C 99 % 3 lf 1022,8 hPa 0,0 l/m 0,00 h 0,00 h 94 W/m 24,1 km/h (4 Bft) 96,73 %
05.02.2016 13:00 9,6 C 10,1 C 8,4 C 99 % 0 lf 1022,2 hPa 0,0 l/m 0,00 h 0,00 h 107 W/m 22,1 km/h (4 Bft) 95,80 %
05.02.2016 14:00 9,6 C 10,2 C 8,3 C 98 % 5 lf 1021,5 hPa 0,0 l/m 0,23 h 0,00 h 105 W/m 20,0 km/h (4 Bft) 93,85 %
05.02.2016 15:00 9,9 C 11,0 C 8,4 C 97 % 0 lf 1021,1 hPa 0,0 l/m 0,03 h 0,00 h 86 W/m 21,3 km/h (4 Bft) 98,35 %
05.02.2016 16:00 9,9 C 10,3 C 8,1 C 94 % 0 lf 1020,9 hPa 0,0 l/m 0,00 h 0,00 h 42 W/m 17,6 km/h (3 Bft) 96,00 %
05.02.2016 17:00 9,7 C 9,6 C 7,8 C 94 % 0 lf 1020,5 hPa 0,0 l/m 0,00 h 0,00 h 11 W/m 10,4 km/h (2 Bft) 95,00 %
05.02.2016 18:00 9,5 C 9,7 C 7,9 C 95 % 0 lf 1020,1 hPa 0,0 l/m 0,00 h 0,00 h 0 W/m 11,6 km/h (2 Bft) 96,20 %
05.02.2016 19:00 9,6 C 10,0 C 8,3 C 95 % 0 lf 1019,7 hPa 0,0 l/m 0,00 h 0,00 h 0 W/m 11,7 km/h (2 Bft) 96,36 %
05.02.2016 20:00 9,8 C 10,3 C 8,3 C 93 % 0 lf 1019,2 hPa 0,0 l/m 0,00 h 0,00 h 0 W/m 15,8 km/h (3 Bft) 96,18 %
05.02.2016 21:00 10,1 C 10,4 C 8,4 C 90 % 0 lf 1018,7 hPa 0,0 l/m 0,00 h 0,00 h 0 W/m 14,8 km/h (3 Bft) 97,06 %
05.02.2016 22:00 9,8 C 9,9 C 8,3 C 90 % 0 lf 1018,0 hPa 0,0 l/m 0,00 h 0,00 h 0 W/m 13,3 km/h (3 Bft) 94,51 %
05.02.2016 23:00 9,5 C 9,5 C 7,9 C 90 % 0 lf 1017,4 hPa 0,0 l/m 0,00 h 0,00 h 0 W/m 13,8 km/h (3 Bft) 96,14 %
06.02.2016 00:00 9,7 C 10,0 C 8,3 C 89 % 0 lf 1017,0 hPa 0,0 l/m 0,00 h 0,00 h 0 W/m 18,2 km/h (3 Bft) 98,73 %
06.02.2016 01:00 9,8 C 10,0 C 8,3 C 88 % 0 lf 1016,3 hPa 0,0 l/m 0,00 h 0,00 h 0 W/m 17,3 km/h (3 Bft) 93,90 %
06.02.2016 02:00 9,5 C 9,3 C 7,7 C 88 % 0 lf 1015,4 hPa 0,0 l/m 0,00 h 0,00 h 0 W/m 13,7 km/h (3 Bft) 96,64 %
06.02.2016 03:00 8,5 C 8,0 C 6,3 C 89 % 0 lf 1014,5 hPa 0,0 l/m 0,00 h 0,00 h 0 W/m 11,0 km/h (2 Bft) 97,06 %
06.02.2016 04:00 7,5 C 7,2 C 5,6 C 92 % 0 lf 1013,4 hPa 0,0 l/m 0,00 h 0,00 h 0 W/m 13,1 km/h (3 Bft) 95,91 %
06.02.2016 05:00 7,3 C 7,5 C 5,8 C 92 % 0 lf 1012,9 hPa 0,0 l/m 0,00 h 0,00 h 0 W/m 14,3 km/h (3 Bft) 95,85 %
06.02.2016 06:00 7,6 C 7,8 C 6,2 C 91 % 0 lf 1012,4 hPa 0,0 l/m 0,00 h 0,00 h 0 W/m 19,1 km/h (3 Bft) 95,84 %
06.02.2016 07:00 7,7 C 7,8 C 6,5 C 90 % 0 lf 1012,1 hPa 0,0 l/m 0,00 h 0,00 h 4 W/m 16,4 km/h (3 Bft) 96,25 %
06.02.2016 08:00 7,2 C 7,2 C 5,7 C 91 % 0 lf 1012,1 hPa 0,0 l/m 0,00 h 0,00 h 10 W/m 12,6 km/h (3 Bft) 97,37 %
06.02.2016 09:00 7,2 C 7,9 C 6,5 C 92 % 0 lf 1011,5 hPa 0,0 l/m 0,13 h 0,00 h 69 W/m 18,2 km/h (3 Bft) 95,73 %
06.02.2016 10:00 8,3 C 9,1 C 7,6 C 90 % 0 lf 1011,2 hPa 0,0 l/m 0,00 h 0,00 h 62 W/m 14,5 km/h (3 Bft) 94,83 %
06.02.2016 11:00 9,2 C 10,2 C 8,5 C 87 % 0 lf 1011,2 hPa 0,0 l/m 0,00 h 0,00 h 86 W/m 22,1 km/h (4 Bft) 97,28 %
06.02.2016 12:00 10,1 C 12,1 C 9,4 C 81 % 0 lf 1010,5 hPa 0,0 l/m 0,33 h 0,00 h 194 W/m 25,2 km/h (4 Bft) 96,10 %
06.02.2016 13:00 11,4 C 14,6 C 10,4 C 75 % 0 lf 1009,4 hPa 0,0 l/m 0,97 h 0,00 h 293 W/m 27,9 km/h (4 Bft) 94,85 %
06.02.2016 14:00 11,9 C 15,3 C 10,6 C 72 % 0 lf 1008,3 hPa 0,0 l/m 1,00 h 0,00 h 285 W/m 30,3 km/h (5 Bft) 98,30 %
06.02.2016 15:00 11,9 C 13,8 C 9,9 C 73 % 0 lf 1007,3 hPa 0,0 l/m 0,80 h 0,00 h 146 W/m 28,7 km/h (4 Bft) 96,63 %
06.02.2016 16:00 11,3 C 11,6 C 9,4 C 74 % 0 lf 1006,3 hPa 0,0 l/m 0,00 h 0,00 h 53 W/m 22,4 km/h (4 Bft) 93,21 %
06.02.2016 17:00 10,5 C 10,1 C 8,3 C 78 % 0 lf 1005,4 hPa 0,0 l/m 0,00 h 0,00 h 12 W/m 16,3 km/h (3 Bft) 97,53 %
06.02.2016 18:00 9,2 C 9,2 C 7,4 C 83 % 0 lf 1004,7 hPa 0,0 l/m 0,00 h 0,00 h 0 W/m 19,7 km/h (3 Bft) 97,43 %
06.02.2016 19:00 8,7 C 8,8 C 7,0 C 84 % 0 lf 1003,7 hPa 0,0 l/m 0,00 h 0,00 h 0 W/m 19,8 km/h (4 Bft) 94,07 %
06.02.2016 20:00 8,8 C 9,0 C 7,2 C 83 % 0 lf 1002,9 hPa 0,0 l/m 0,00 h 0,00 h 0 W/m 22,0 km/h (4 Bft) 96,60 %
06.02.2016 21:00 8,8 C 8,9 C 7,1 C 82 % 0 lf 1002,0 hPa 0,0 l/m 0,00 h 0,00 h 0 W/m 20,7 km/h (4 Bft) 95,61 %
06.02.2016 22:00 8,7 C 8,9 C 7,1 C 83 % 0 lf 1001,1 hPa 0,0 l/m 0,00 h 0,00 h 0 W/m 21,5 km/h (4 Bft) 96,55 %
06.02.2016 23:00 9,1 C 9,6 C 7,6 C 82 % 0 lf 1000,4 hPa 0,0 l/m 0,00 h 0,00 h 0 W/m 21,2 km/h (4 Bft) 96,68 %
07.02.2016 00:00 10,1 C 10,3 C 8,3 C 77 % 0 lf 999,9 hPa 0,0 l/m 0,00 h 0,00 h 0 W/m 23,8 km/h (4 Bft) 94,55 %
07.02.2016 01:00 9,6 C 9,4 C 7,8 C 79 % 0 lf 999,2 hPa 0,0 l/m 0,00 h 0,00 h 0 W/m 20,8 km/h (4 Bft) 96,37 %
07.02.2016 02:00 9,1 C 9,3 C 7,5 C 81 % 0 lf 998,3 hPa 0,0 l/m 0,00 h 0,00 h 0 W/m 21,3 km/h (4 Bft) 97,71 %
07.02.2016 03:00 10,3 C 10,8 C 8,9 C 77 % 0 lf 997,5 hPa 0,0 l/m 0,00 h 0,00 h 0 W/m 23,9 km/h (4 Bft) 94,57 %
07.02.2016 04:00 10,3 C 10,6 C 8,7 C 77 % 0 lf 996,7 hPa 0,0 l/m 0,00 h 0,00 h 0 W/m 24,8 km/h (4 Bft) 95,15 %
07.02.2016 05:00 10,7 C 10,9 C 9,2 C 75 % 0 lf 996,2 hPa 0,0 l/m 0,00 h 0,00 h 0 W/m 32,3 km/h (5 Bft) 96,87 %
07.02.2016 06:00 11,1 C 11,3 C 9,5 C 73 % 0 lf 996,1 hPa 0,0 l/m 0,00 h 0,00 h 0 W/m 32,8 km/h (5 Bft) 96,66 %
07.02.2016 07:00 11,2 C 11,2 C 9,3 C 75 % 0 lf 996,2 hPa 0,0 l/m 0,00 h 0,40 h 0 W/m 26,6 km/h (4 Bft) 96,39 %
07.02.2016 08:00 10,5 C 9,9 C 8,3 C 81 % 6 lf 997,2 hPa 0,2 l/m 0,00 h 0,40 h 14 W/m 34,6 km/h (5 Bft) 95,31 %
07.02.2016 09:00 8,6 C 7,9 C 6,5 C 90 % 15 lf 998,5 hPa 0,6 l/m 0,00 h 0,50 h 30 W/m 23,6 km/h (4 Bft) 95,99 %
07.02.2016 10:00 7,9 C 7,8 C 6,5 C 93 % 15 lf 999,1 hPa 0,0 l/m 0,00 h 0,30 h 94 W/m 17,4 km/h (3 Bft) 96,79 %
07.02.2016 11:00 8,7 C 9,8 C 7,4 C 92 % 6 lf 999,7 hPa 0,0 l/m 0,60 h 0,00 h 199 W/m 22,9 km/h (4 Bft) 95,97 %
07.02.2016 12:00 9,2 C 10,8 C 7,2 C 83 % 0 lf 1000,2 hPa 0,0 l/m 0,80 h 0,00 h 208 W/m 29,9 km/h (5 Bft) 95,30 %
07.02.2016 13:00 9,3 C 10,3 C 7,8 C 79 % 0 lf 1000,5 hPa 0,0 l/m 0,10 h 0,00 h 159 W/m 26,2 km/h (4 Bft) 96,71 %
07.02.2016 14:00 9,4 C 10,3 C 8,3 C 75 % 0 lf 1000,8 hPa 0,0 l/m 0,07 h 0,00 h 130 W/m 26,8 km/h (4 Bft) 96,23 %
07.02.2016 15:00 9,6 C 10,8 C 8,5 C 71 % 0 lf 1001,2 hPa 0,0 l/m 0,77 h 0,00 h 158 W/m 33,9 km/h (5 Bft) 95,52 %
07.02.2016 16:00 9,5 C 9,8 C 7,8 C 68 % 0 lf 1001,6 hPa 0,0 l/m 0,40 h 0,00 h 78 W/m 32,4 km/h (5 Bft) 95,45 %
07.02.2016 17:00 8,4 C 8,1 C 6,4 C 70 % 0 lf 1002,0 hPa 0,0 l/m 0,07 h 0,00 h 14 W/m 28,9 km/h (5 Bft) 97,43 %
07.02.2016 18:00 7,3 C 6,8 C 5,1 C 76 % 0 lf 1002,5 hPa 0,0 l/m 0,00 h 0,00 h 0 W/m 13,7 km/h (3 Bft) 96,73 %
07.02.2016 19:00 6,9 C 7,0 C 5,2 C 77 % 0 lf 1002,3 hPa 0,0 l/m 0,00 h 0,00 h 0 W/m 21,3 km/h (4 Bft) 94,77 %
07.02.2016 20:00 7,2 C 7,2 C 5,6 C 76 % 0 lf 1002,2 hPa 0,0 l/m 0,00 h 0,00 h 0 W/m 25,5 km/h (4 Bft) 96,57 %
07.02.2016 21:00 7,1 C 7,2 C 5,4 C 76 % 0 lf 1001,8 hPa 0,0 l/m 0,00 h 0,00 h 0 W/m 28,8 km/h (4 Bft) 97,13 %
07.02.2016 22:00 7,2 C 7,2 C 5,6 C 75 % 0 lf 1001,3 hPa 0,0 l/m 0,00 h 0,00 h 0 W/m 32,2 km/h (5 Bft) 95,45 %
07.02.2016 23:00 7,3 C 7,2 C 5,6 C 76 % 0 lf 1000,3 hPa 0,0 l/m 0,00 h 0,00 h 0 W/m 34,9 km/h (5 Bft) 96,77 %
Min-Datum _ 04.02.16 03.02.16 03.02.16 07.02.16 01.02.16 07.02.16 - - - - 04.02.16 05.02.16
_ Min-Zeit 05:08 14:50 14:52 16:30 11:26 07:02 - - - - 19:46 00:02
Minimum _ 2,8 C 2,2 C 1,1 C 66 % 0 lf 995,9 hPa - - - - 0,0 km/h (0 Bft) 22,22 %
Max-Datum _ 06.02.16 06.02.16 06.02.16 01.02.16 01.02.16 05.02.16 02.02.16 03.02.16 01.02.16 03.02.16 02.02.16 01.02.16
_ Max-Zeit 14:44 12:54 13:42 02:46 00:00 00:44 15:54 09:50 00:00 12:24 03:08 00:02
Maximum _ 12,1 C 17,2 C 11,1 C 99 % 15 lf 1025,8 hPa 3,8 l/m 0,03 h 0,03 h 520 W/m 71,1 km/h
W-SW (8 Bft)
100,00 %
Durchschnitt _ 7,8 C 8,0 C 6,3 C 89 % 5 lf 1014,2 hPa #23,4 l/m #10:26 h #30:10 h 76 W/m 24,3 km/h (4 Bft) 96,07 %
© 2016 W. Hausmann